Date_Time,Julian_Date,Latitude,Longitude,Instrument_Depth,U,V,Speed,Direction
(yyyy-mm-dd hh:mn:ss UTC),(JD),(+ deg. North),(+ deg. East),(m),(cm/s),(cm/s),(cm/s),(deg True)
1982-03-14 18:30:00 UTC,2445043.270833,29.6650,-93.4789,0037,-38.15,-8.11,39.0000,258.0000
1982-03-14 19:00:00 UTC,2445043.291667,29.6650,-93.4789,0037,-33.92,-2.37,34.0000,266.0000
1982-03-14 19:30:00 UTC,2445043.312500,29.6650,-93.4789,0037,-33.99,0.59,34.0000,271.0000
1982-03-14 20:00:00 UTC,2445043.333333,29.6650,-93.4789,0037,-37.99,-0.66,38.0000,269.0000
1982-03-14 20:30:00 UTC,2445043.354167,29.6650,-93.4789,0037,-40.84,-3.57,41.0000,265.0000
1982-03-14 21:00:00 UTC,2445043.375000,29.6650,-93.4789,0037,-39.39,-6.95,40.0000,260.0000
1982-03-14 21:30:00 UTC,2445043.395833,29.6650,-93.4789,0037,-38.28,-7.44,39.0000,259.0000
1982-03-14 22:00:00 UTC,2445043.416667,29.6650,-93.4789,0037,-35.73,-4.39,36.0000,263.0000
1982-03-14 22:30:00 UTC,2445043.437500,29.6650,-93.4789,0037,-33.81,-3.55,34.0000,264.0000
1982-03-14 23:00:00 UTC,2445043.458333,29.6650,-93.4789,0037,-35.65,-5.01,36.0000,262.0000
1982-03-14 23:30:00 UTC,2445043.479167,29.6650,-93.4789,0037,-35.56,-5.63,36.0000,261.0000
1982-03-15 00:00:00 UTC,2445043.500000,29.6650,-93.4789,0037,-33.75,-4.14,34.0000,263.0000
1982-03-15 00:30:00 UTC,2445043.520833,29.6650,-93.4789,0037,-35.65,-5.01,36.0000,262.0000
1982-03-15 01:00:00 UTC,2445043.541667,29.6650,-93.4789,0037,-39.13,-8.32,40.0000,258.0000
1982-03-15 01:30:00 UTC,2445043.562500,29.6650,-93.4789,0037,-38.64,-10.35,40.0000,255.0000
1982-03-15 02:00:00 UTC,2445043.583333,29.6650,-93.4789,0037,-36.53,-10.47,38.0000,254.0000
1982-03-15 02:30:00 UTC,2445043.604167,29.6650,-93.4789,0037,-35.57,-10.20,37.0000,254.0000
1982-03-15 03:00:00 UTC,2445043.625000,29.6650,-93.4789,0037,-37.67,-10.09,39.0000,255.0000
1982-03-15 03:30:00 UTC,2445043.645833,29.6650,-93.4789,0037,-42.69,-10.64,44.0000,256.0000
1982-03-15 04:00:00 UTC,2445043.666667,29.6650,-93.4789,0037,-46.77,-10.80,48.0000,257.0000
1982-03-15 04:30:00 UTC,2445043.687500,29.6650,-93.4789,0037,-48.10,-9.35,49.0000,259.0000
1982-03-15 05:00:00 UTC,2445043.708333,29.6650,-93.4789,0037,-46.29,-8.16,47.0000,260.0000
1982-03-15 05:30:00 UTC,2445043.729167,29.6650,-93.4789,0037,-41.36,-7.29,42.0000,260.0000
1982-03-15 06:00:00 UTC,2445043.750000,29.6650,-93.4789,0037,-37.79,-3.97,38.0000,264.0000
1982-03-15 06:30:00 UTC,2445043.770833,29.6650,-93.4789,0037,-35.00,-0.00,35.0000,270.0000
1982-03-15 07:00:00 UTC,2445043.791667,29.6650,-93.4789,0037,-33.87,2.96,34.0000,275.0000
1982-03-15 07:30:00 UTC,2445043.812500,29.6650,-93.4789,0037,-30.83,3.24,31.0000,276.0000
1982-03-15 08:00:00 UTC,2445043.833333,29.6650,-93.4789,0037,-28.98,1.01,29.0000,272.0000
1982-03-15 08:30:00 UTC,2445043.854167,29.6650,-93.4789,0037,-28.96,-1.52,29.0000,267.0000
1982-03-15 09:00:00 UTC,2445043.875000,29.6650,-93.4789,0037,-31.82,-3.34,32.0000,264.0000
1982-03-15 09:30:00 UTC,2445043.895833,29.6650,-93.4789,0037,-35.34,-6.87,36.0000,259.0000
1982-03-15 10:00:00 UTC,2445043.916667,29.6650,-93.4789,0037,-34.10,-7.87,35.0000,257.0000
1982-03-15 10:30:00 UTC,2445043.937500,29.6650,-93.4789,0037,-31.69,-4.45,32.0000,262.0000
1982-03-15 11:00:00 UTC,2445043.958333,29.6650,-93.4789,0037,-31.92,-2.23,32.0000,266.0000
1982-03-15 11:30:00 UTC,2445043.979167,29.6650,-93.4789,0037,-37.72,-4.63,38.0000,263.0000
1982-03-15 12:00:00 UTC,2445044.000000,29.6650,-93.4789,0037,-41.90,-2.93,42.0000,266.0000
1982-03-15 12:30:00 UTC,2445044.020833,29.6650,-93.4789,0037,-40.98,1.43,41.0000,272.0000
1982-03-15 13:00:00 UTC,2445044.041667,29.6650,-93.4789,0037,-36.91,2.58,37.0000,274.0000
1982-03-15 13:30:00 UTC,2445044.062500,29.6650,-93.4789,0037,-32.95,1.73,33.0000,273.0000
1982-03-15 14:00:00 UTC,2445044.083333,29.6650,-93.4789,0037,-29.98,-1.05,30.0000,268.0000
1982-03-15 14:30:00 UTC,2445044.104167,29.6650,-93.4789,0037,-27.73,-3.90,28.0000,262.0000
1982-03-15 15:00:00 UTC,2445044.125000,29.6650,-93.4789,0037,-26.67,-4.22,27.0000,261.0000
1982-03-15 15:30:00 UTC,2445044.145833,29.6650,-93.4789,0037,-27.89,-2.44,28.0000,265.0000
1982-03-15 16:00:00 UTC,2445044.166667,29.6650,-93.4789,0037,-26.85,-2.82,27.0000,264.0000
1982-03-15 16:30:00 UTC,2445044.187500,29.6650,-93.4789,0037,-25.75,-3.62,26.0000,262.0000
1982-03-15 17:00:00 UTC,2445044.208333,29.6650,-93.4789,0037,-25.81,-3.17,26.0000,263.0000
1982-03-15 17:30:00 UTC,2445044.229167,29.6650,-93.4789,0037,-26.85,-2.82,27.0000,264.0000
1982-03-15 18:00:00 UTC,2445044.250000,29.6650,-93.4789,0037,-27.79,-3.41,28.0000,263.0000
1982-03-15 18:30:00 UTC,2445044.270833,29.6650,-93.4789,0037,-26.90,-2.35,27.0000,265.0000
1982-03-15 19:00:00 UTC,2445044.291667,29.6650,-93.4789,0037,-25.00,-0.44,25.0000,269.0000
1982-03-15 19:30:00 UTC,2445044.312500,29.6650,-93.4789,0037,-24.00,-0.00,24.0000,270.0000
1982-03-15 20:00:00 UTC,2445044.333333,29.6650,-93.4789,0037,-23.91,2.09,24.0000,275.0000
1982-03-15 20:30:00 UTC,2445044.354167,29.6650,-93.4789,0037,-26.20,6.53,27.0000,284.0000
1982-03-15 21:00:00 UTC,2445044.375000,29.6650,-93.4789,0037,-29.65,9.06,31.0000,287.0000
1982-03-15 21:30:00 UTC,2445044.395833,29.6650,-93.4789,0037,-30.91,8.28,32.0000,285.0000
1982-03-15 22:00:00 UTC,2445044.416667,29.6650,-93.4789,0037,-29.11,7.26,30.0000,284.0000
1982-03-15 22:30:00 UTC,2445044.437500,29.6650,-93.4789,0037,-30.43,5.91,31.0000,281.0000
1982-03-15 23:00:00 UTC,2445044.458333,29.6650,-93.4789,0037,-31.69,4.45,32.0000,278.0000
1982-03-15 23:30:00 UTC,2445044.479167,29.6650,-93.4789,0037,-32.75,4.02,33.0000,277.0000
1982-03-16 00:00:00 UTC,2445044.500000,29.6650,-93.4789,0037,-32.87,2.88,33.0000,275.0000
1982-03-16 00:30:00 UTC,2445044.520833,29.6650,-93.4789,0037,-29.84,3.14,30.0000,276.0000
1982-03-16 01:00:00 UTC,2445044.541667,29.6650,-93.4789,0037,-26.67,4.22,27.0000,279.0000
1982-03-16 01:30:00 UTC,2445044.562500,29.6650,-93.4789,0037,-24.76,3.48,25.0000,278.0000
1982-03-16 02:00:00 UTC,2445044.583333,29.6650,-93.4789,0037,-22.99,0.80,23.0000,272.0000
1982-03-16 02:30:00 UTC,2445044.604167,29.6650,-93.4789,0037,-18.95,-1.33,19.0000,266.0000
1982-03-16 03:00:00 UTC,2445044.625000,29.6650,-93.4789,0037,-17.61,-3.74,18.0000,258.0000
1982-03-16 03:30:00 UTC,2445044.645833,29.6650,-93.4789,0037,-17.62,-7.12,19.0000,248.0000
1982-03-16 04:00:00 UTC,2445044.666667,29.6650,-93.4789,0037,-20.99,-11.64,24.0000,241.0000
1982-03-16 04:30:00 UTC,2445044.687500,29.6650,-93.4789,0037,-26.49,-14.08,30.0000,242.0000
1982-03-16 05:00:00 UTC,2445044.708333,29.6650,-93.4789,0037,-32.22,-13.68,35.0000,247.0000
1982-03-16 05:30:00 UTC,2445044.729167,29.6650,-93.4789,0037,-34.04,-11.72,36.0000,251.0000
1982-03-16 06:00:00 UTC,2445044.750000,29.6650,-93.4789,0037,-35.57,-10.20,37.0000,254.0000
1982-03-16 06:30:00 UTC,2445044.770833,29.6650,-93.4789,0037,-39.39,-6.95,40.0000,260.0000
1982-03-16 07:00:00 UTC,2445044.791667,29.6650,-93.4789,0037,-43.97,-1.54,44.0000,268.0000
1982-03-16 07:30:00 UTC,2445044.812500,29.6650,-93.4789,0037,-46.74,4.91,47.0000,276.0000
1982-03-16 08:00:00 UTC,2445044.833333,29.6650,-93.4789,0037,-46.14,8.97,47.0000,281.0000
1982-03-16 08:30:00 UTC,2445044.854167,29.6650,-93.4789,0037,-45.80,10.57,47.0000,283.0000
1982-03-16 09:00:00 UTC,2445044.875000,29.6650,-93.4789,0037,-45.40,12.16,47.0000,285.0000
1982-03-16 09:30:00 UTC,2445044.895833,29.6650,-93.4789,0037,-44.70,14.52,47.0000,288.0000
1982-03-16 10:00:00 UTC,2445044.916667,29.6650,-93.4789,0037,-40.90,13.29,43.0000,288.0000
1982-03-16 10:30:00 UTC,2445044.937500,29.6650,-93.4789,0037,-35.57,10.20,37.0000,286.0000
1982-03-16 11:00:00 UTC,2445044.958333,29.6650,-93.4789,0037,-29.94,8.02,31.0000,285.0000
1982-03-16 11:30:00 UTC,2445044.979167,29.6650,-93.4789,0037,-26.20,6.53,27.0000,284.0000
1982-03-16 12:00:00 UTC,2445045.000000,29.6650,-93.4789,0037,-24.03,6.89,25.0000,286.0000
1982-03-16 12:30:00 UTC,2445045.020833,29.6650,-93.4789,0037,-21.04,6.43,22.0000,287.0000
1982-03-16 13:00:00 UTC,2445045.041667,29.6650,-93.4789,0037,-21.35,5.32,22.0000,284.0000
1982-03-16 13:30:00 UTC,2445045.062500,29.6650,-93.4789,0037,-22.50,4.78,23.0000,282.0000
1982-03-16 14:00:00 UTC,2445045.083333,29.6650,-93.4789,0037,-21.35,5.32,22.0000,284.0000
1982-03-16 14:30:00 UTC,2445045.104167,29.6650,-93.4789,0037,-19.32,5.18,20.0000,285.0000
1982-03-16 15:00:00 UTC,2445045.125000,29.6650,-93.4789,0037,-16.26,4.97,17.0000,287.0000
1982-03-16 15:30:00 UTC,2445045.145833,29.6650,-93.4789,0037,-14.10,5.13,15.0000,290.0000
1982-03-16 16:00:00 UTC,2445045.166667,29.6650,-93.4789,0037,-12.69,5.92,14.0000,295.0000
1982-03-16 16:30:00 UTC,2445045.187500,29.6650,-93.4789,0037,-11.14,6.70,13.0000,301.0000
1982-03-16 17:00:00 UTC,2445045.208333,29.6650,-93.4789,0037,-9.12,6.15,11.0000,304.0000
1982-03-16 17:30:00 UTC,2445045.229167,29.6650,-93.4789,0037,-6.79,5.90,9.0000,311.0000
1982-03-16 18:00:00 UTC,2445045.250000,29.6650,-93.4789,0037,-5.20,4.68,7.0000,312.0000
1982-03-16 18:30:00 UTC,2445045.270833,29.6650,-93.4789,0037,-4.87,1.12,5.0000,283.0000
1982-03-16 19:00:00 UTC,2445045.291667,29.6650,-93.4789,0037,-4.57,-2.03,5.0000,246.0000
1982-03-16 19:30:00 UTC,2445045.312500,29.6650,-93.4789,0037,-3.89,-3.15,5.0000,231.0000
1982-03-16 20:00:00 UTC,2445045.333333,29.6650,-93.4789,0037,-3.41,-3.66,5.0000,223.0000
1982-03-16 20:30:00 UTC,2445045.354167,29.6650,-93.4789,0037,-2.72,-5.35,6.0000,207.0000
1982-03-16 21:00:00 UTC,2445045.375000,29.6650,-93.4789,0037,-1.81,-6.76,7.0000,195.0000
1982-03-16 21:30:00 UTC,2445045.395833,29.6650,-93.4789,0037,-1.11,-7.92,8.0000,188.0000
1982-03-16 22:00:00 UTC,2445045.416667,29.6650,-93.4789,0037,0.00,-10.00,10.0000,180.0000
1982-03-16 22:30:00 UTC,2445045.437500,29.6650,-93.4789,0037,0.00,-12.00,12.0000,180.0000
1982-03-16 23:00:00 UTC,2445045.458333,29.6650,-93.4789,0037,-2.19,-13.83,14.0000,189.0000
1982-03-16 23:30:00 UTC,2445045.479167,29.6650,-93.4789,0037,-5.62,-13.91,15.0000,202.0000
1982-03-17 00:00:00 UTC,2445045.500000,29.6650,-93.4789,0037,-8.76,-14.57,17.0000,211.0000
1982-03-17 00:30:00 UTC,2445045.520833,29.6650,-93.4789,0037,-11.81,-13.58,18.0000,221.0000
1982-03-17 01:00:00 UTC,2445045.541667,29.6650,-93.4789,0037,-14.77,-11.96,19.0000,231.0000
1982-03-17 01:30:00 UTC,2445045.562500,29.6650,-93.4789,0037,-16.11,-10.07,19.0000,238.0000
1982-03-17 02:00:00 UTC,2445045.583333,29.6650,-93.4789,0037,-16.62,-9.21,19.0000,241.0000
1982-03-17 02:30:00 UTC,2445045.604167,29.6650,-93.4789,0037,-16.04,-8.17,18.0000,243.0000
1982-03-17 03:00:00 UTC,2445045.625000,29.6650,-93.4789,0037,-17.08,-8.33,19.0000,244.0000
1982-03-17 03:30:00 UTC,2445045.645833,29.6650,-93.4789,0037,-17.49,-9.70,20.0000,241.0000
1982-03-17 04:00:00 UTC,2445045.666667,29.6650,-93.4789,0037,-18.19,-10.50,21.0000,240.0000
1982-03-17 04:30:00 UTC,2445045.687500,29.6650,-93.4789,0037,-17.82,-9.08,20.0000,243.0000
1982-03-17 05:00:00 UTC,2445045.708333,29.6650,-93.4789,0037,-18.67,-7.17,20.0000,249.0000
1982-03-17 05:30:00 UTC,2445045.729167,29.6650,-93.4789,0037,-18.91,-6.51,20.0000,251.0000
1982-03-17 06:00:00 UTC,2445045.750000,29.6650,-93.4789,0037,-16.26,-4.97,17.0000,253.0000
1982-03-17 06:30:00 UTC,2445045.770833,29.6650,-93.4789,0037,-14.82,-2.35,15.0000,261.0000
1982-03-17 07:00:00 UTC,2445045.791667,29.6650,-93.4789,0037,-15.99,-0.56,16.0000,268.0000
1982-03-17 07:30:00 UTC,2445045.812500,29.6650,-93.4789,0037,-17.99,0.63,18.0000,272.0000
1982-03-17 08:00:00 UTC,2445045.833333,29.6650,-93.4789,0037,-16.98,0.89,17.0000,273.0000
1982-03-17 08:30:00 UTC,2445045.854167,29.6650,-93.4789,0037,-15.98,0.84,16.0000,273.0000
1982-03-17 09:00:00 UTC,2445045.875000,29.6650,-93.4789,0037,-16.00,0.28,16.0000,271.0000
1982-03-17 09:30:00 UTC,2445045.895833,29.6650,-93.4789,0037,-15.94,-1.39,16.0000,265.0000
1982-03-17 10:00:00 UTC,2445045.916667,29.6650,-93.4789,0037,-17.78,-2.82,18.0000,261.0000
1982-03-17 10:30:00 UTC,2445045.937500,29.6650,-93.4789,0037,-18.77,-2.97,19.0000,261.0000
1982-03-17 11:00:00 UTC,2445045.958333,29.6650,-93.4789,0037,-19.75,-3.13,20.0000,261.0000
1982-03-17 11:30:00 UTC,2445045.979167,29.6650,-93.4789,0037,-19.81,-2.78,20.0000,262.0000
1982-03-17 12:00:00 UTC,2445046.000000,29.6650,-93.4789,0037,-18.77,-2.97,19.0000,261.0000
1982-03-17 12:30:00 UTC,2445046.020833,29.6650,-93.4789,0037,-16.56,-3.82,17.0000,257.0000
1982-03-17 13:00:00 UTC,2445046.041667,29.6650,-93.4789,0037,-15.59,-3.60,16.0000,257.0000
1982-03-17 13:30:00 UTC,2445046.062500,29.6650,-93.4789,0037,-14.72,-2.86,15.0000,259.0000
1982-03-17 14:00:00 UTC,2445046.083333,29.6650,-93.4789,0037,-13.69,-2.91,14.0000,258.0000
1982-03-17 14:30:00 UTC,2445046.104167,29.6650,-93.4789,0037,-11.59,-3.11,12.0000,255.0000
1982-03-17 15:00:00 UTC,2445046.125000,29.6650,-93.4789,0037,-10.46,-3.40,11.0000,252.0000
1982-03-17 15:30:00 UTC,2445046.145833,29.6650,-93.4789,0037,-9.27,-3.75,10.0000,248.0000
1982-03-17 16:00:00 UTC,2445046.166667,29.6650,-93.4789,0037,-8.16,-3.80,9.0000,245.0000
1982-03-17 16:30:00 UTC,2445046.187500,29.6650,-93.4789,0037,-8.02,-4.09,9.0000,243.0000
1982-03-17 17:00:00 UTC,2445046.208333,29.6650,-93.4789,0037,-7.19,-3.51,8.0000,244.0000
1982-03-17 17:30:00 UTC,2445046.229167,29.6650,-93.4789,0037,-7.25,-3.38,8.0000,245.0000
1982-03-17 18:00:00 UTC,2445046.250000,29.6650,-93.4789,0037,-7.13,-3.63,8.0000,243.0000
1982-03-17 18:30:00 UTC,2445046.270833,29.6650,-93.4789,0037,-7.87,-4.36,9.0000,241.0000
1982-03-17 19:00:00 UTC,2445046.291667,29.6650,-93.4789,0037,-8.99,-4.38,10.0000,244.0000
1982-03-17 19:30:00 UTC,2445046.312500,29.6650,-93.4789,0037,-9.34,-3.58,10.0000,249.0000
1982-03-17 20:00:00 UTC,2445046.333333,29.6650,-93.4789,0037,-8.34,-3.37,9.0000,248.0000
1982-03-17 20:30:00 UTC,2445046.354167,29.6650,-93.4789,0037,-7.06,-3.76,8.0000,242.0000
1982-03-17 21:00:00 UTC,2445046.375000,29.6650,-93.4789,0037,-7.87,-4.36,9.0000,241.0000
1982-03-17 21:30:00 UTC,2445046.395833,29.6650,-93.4789,0037,-9.14,-4.07,10.0000,246.0000
1982-03-17 22:00:00 UTC,2445046.416667,29.6650,-93.4789,0037,-11.20,-4.30,12.0000,249.0000
1982-03-17 22:30:00 UTC,2445046.437500,29.6650,-93.4789,0037,-13.07,-5.02,14.0000,249.0000
1982-03-17 23:00:00 UTC,2445046.458333,29.6650,-93.4789,0037,-14.94,-5.73,16.0000,249.0000
1982-03-17 23:30:00 UTC,2445046.479167,29.6650,-93.4789,0037,-17.12,-5.56,18.0000,252.0000
1982-03-18 00:00:00 UTC,2445046.500000,29.6650,-93.4789,0037,-19.41,-4.84,20.0000,256.0000
1982-03-18 00:30:00 UTC,2445046.520833,29.6650,-93.4789,0037,-21.52,-4.57,22.0000,258.0000
1982-03-18 01:00:00 UTC,2445046.541667,29.6650,-93.4789,0037,-23.48,-4.99,24.0000,258.0000
1982-03-18 01:30:00 UTC,2445046.562500,29.6650,-93.4789,0037,-25.52,-4.96,26.0000,259.0000
1982-03-18 02:00:00 UTC,2445046.583333,29.6650,-93.4789,0037,-26.41,-5.61,27.0000,258.0000
1982-03-18 02:30:00 UTC,2445046.604167,29.6650,-93.4789,0037,-27.73,-8.48,29.0000,253.0000
1982-03-18 03:00:00 UTC,2445046.625000,29.6650,-93.4789,0037,-29.48,-9.58,31.0000,252.0000
1982-03-18 03:30:00 UTC,2445046.645833,29.6650,-93.4789,0037,-29.94,-8.02,31.0000,255.0000
1982-03-18 04:00:00 UTC,2445046.666667,29.6650,-93.4789,0037,-30.08,-7.50,31.0000,256.0000
1982-03-18 04:30:00 UTC,2445046.687500,29.6650,-93.4789,0037,-31.56,-9.65,33.0000,253.0000
1982-03-18 05:00:00 UTC,2445046.708333,29.6650,-93.4789,0037,-33.64,-9.65,35.0000,254.0000
1982-03-18 05:30:00 UTC,2445046.729167,29.6650,-93.4789,0037,-34.24,-7.28,35.0000,258.0000
1982-03-18 06:00:00 UTC,2445046.750000,29.6650,-93.4789,0037,-31.30,-6.65,32.0000,258.0000
1982-03-18 06:30:00 UTC,2445046.770833,29.6650,-93.4789,0037,-25.68,-8.34,27.0000,252.0000
1982-03-18 07:00:00 UTC,2445046.791667,29.6650,-93.4789,0037,-24.43,-8.89,26.0000,250.0000
1982-03-18 07:30:00 UTC,2445046.812500,29.6650,-93.4789,0037,-25.23,-6.29,26.0000,256.0000
1982-03-18 08:00:00 UTC,2445046.833333,29.6650,-93.4789,0037,-23.82,-2.92,24.0000,263.0000
1982-03-18 08:30:00 UTC,2445046.854167,29.6650,-93.4789,0037,-20.00,-0.00,20.0000,270.0000
1982-03-18 09:00:00 UTC,2445046.875000,29.6650,-93.4789,0037,-14.77,2.60,15.0000,280.0000
1982-03-18 09:30:00 UTC,2445046.895833,29.6650,-93.4789,0037,-11.97,5.08,13.0000,293.0000
1982-03-18 10:00:00 UTC,2445046.916667,29.6650,-93.4789,0037,-10.79,5.26,12.0000,296.0000
1982-03-18 10:30:00 UTC,2445046.937500,29.6650,-93.4789,0037,-10.34,3.76,11.0000,290.0000
1982-03-18 11:00:00 UTC,2445046.958333,29.6650,-93.4789,0037,-11.64,2.90,12.0000,284.0000
1982-03-18 11:30:00 UTC,2445046.979167,29.6650,-93.4789,0037,-12.61,3.14,13.0000,284.0000
1982-03-18 12:00:00 UTC,2445047.000000,29.6650,-93.4789,0037,-13.39,4.09,14.0000,287.0000
1982-03-18 12:30:00 UTC,2445047.020833,29.6650,-93.4789,0037,-14.10,5.13,15.0000,290.0000
1982-03-18 13:00:00 UTC,2445047.041667,29.6650,-93.4789,0037,-13.91,5.62,15.0000,292.0000
1982-03-18 13:30:00 UTC,2445047.062500,29.6650,-93.4789,0037,-16.31,7.61,18.0000,295.0000
1982-03-18 14:00:00 UTC,2445047.083333,29.6650,-93.4789,0037,-19.60,9.99,22.0000,297.0000
1982-03-18 14:30:00 UTC,2445047.104167,29.6650,-93.4789,0037,-21.01,9.35,23.0000,294.0000
1982-03-18 15:00:00 UTC,2445047.125000,29.6650,-93.4789,0037,-21.15,6.06,22.0000,286.0000
1982-03-18 15:30:00 UTC,2445047.145833,29.6650,-93.4789,0037,-23.82,2.92,24.0000,277.0000
1982-03-18 16:00:00 UTC,2445047.166667,29.6650,-93.4789,0037,-26.96,-1.41,27.0000,267.0000
1982-03-18 16:30:00 UTC,2445047.187500,29.6650,-93.4789,0037,-26.59,-4.69,27.0000,260.0000
1982-03-18 17:00:00 UTC,2445047.208333,29.6650,-93.4789,0037,-24.26,-6.05,25.0000,256.0000
1982-03-18 17:30:00 UTC,2445047.229167,29.6650,-93.4789,0037,-24.86,-7.60,26.0000,253.0000
1982-03-18 18:00:00 UTC,2445047.250000,29.6650,-93.4789,0037,-25.53,-8.79,27.0000,251.0000
1982-03-18 18:30:00 UTC,2445047.270833,29.6650,-93.4789,0037,-27.25,-9.92,29.0000,250.0000
1982-03-18 19:00:00 UTC,2445047.291667,29.6650,-93.4789,0037,-27.42,-9.44,29.0000,251.0000
1982-03-18 19:30:00 UTC,2445047.312500,29.6650,-93.4789,0037,-26.47,-9.12,28.0000,251.0000
1982-03-18 20:00:00 UTC,2445047.333333,29.6650,-93.4789,0037,-23.64,-8.14,25.0000,251.0000
1982-03-18 20:30:00 UTC,2445047.354167,29.6650,-93.4789,0037,-21.75,-7.49,23.0000,251.0000
1982-03-18 21:00:00 UTC,2445047.375000,29.6650,-93.4789,0037,-20.67,-7.52,22.0000,250.0000
1982-03-18 21:30:00 UTC,2445047.395833,29.6650,-93.4789,0037,-19.86,-6.84,21.0000,251.0000
1982-03-18 22:00:00 UTC,2445047.416667,29.6650,-93.4789,0037,-19.41,-4.84,20.0000,256.0000
1982-03-18 22:30:00 UTC,2445047.437500,29.6650,-93.4789,0037,-18.93,-1.66,19.0000,265.0000
1982-03-18 23:00:00 UTC,2445047.458333,29.6650,-93.4789,0037,-20.95,1.46,21.0000,274.0000
1982-03-18 23:30:00 UTC,2445047.479167,29.6650,-93.4789,0037,-21.52,4.57,22.0000,282.0000
1982-03-19 00:00:00 UTC,2445047.500000,29.6650,-93.4789,0037,-22.00,6.72,23.0000,287.0000
1982-03-19 00:30:00 UTC,2445047.520833,29.6650,-93.4789,0037,-24.03,6.89,25.0000,286.0000
1982-03-19 01:00:00 UTC,2445047.541667,29.6650,-93.4789,0037,-27.28,6.30,28.0000,283.0000
1982-03-19 01:30:00 UTC,2445047.562500,29.6650,-93.4789,0037,-30.53,5.38,31.0000,280.0000
1982-03-19 02:00:00 UTC,2445047.583333,29.6650,-93.4789,0037,-31.69,4.45,32.0000,278.0000
1982-03-19 02:30:00 UTC,2445047.604167,29.6650,-93.4789,0037,-33.75,4.14,34.0000,277.0000
1982-03-19 03:00:00 UTC,2445047.625000,29.6650,-93.4789,0037,-35.80,3.76,36.0000,276.0000
1982-03-19 03:30:00 UTC,2445047.645833,29.6650,-93.4789,0037,-37.53,5.94,38.0000,279.0000
1982-03-19 04:00:00 UTC,2445047.666667,29.6650,-93.4789,0037,-38.15,8.11,39.0000,282.0000
1982-03-19 04:30:00 UTC,2445047.687500,29.6650,-93.4789,0037,-36.05,8.32,37.0000,283.0000
1982-03-19 05:00:00 UTC,2445047.708333,29.6650,-93.4789,0037,-33.58,5.32,34.0000,279.0000
1982-03-19 05:30:00 UTC,2445047.729167,29.6650,-93.4789,0037,-32.87,2.88,33.0000,275.0000
1982-03-19 06:00:00 UTC,2445047.750000,29.6650,-93.4789,0037,-32.92,2.30,33.0000,274.0000
1982-03-19 06:30:00 UTC,2445047.770833,29.6650,-93.4789,0037,-33.92,2.37,34.0000,274.0000
1982-03-19 07:00:00 UTC,2445047.791667,29.6650,-93.4789,0037,-32.92,2.30,33.0000,274.0000
1982-03-19 07:30:00 UTC,2445047.812500,29.6650,-93.4789,0037,-30.92,2.16,31.0000,274.0000
1982-03-19 08:00:00 UTC,2445047.833333,29.6650,-93.4789,0037,-28.00,0.49,28.0000,271.0000
1982-03-19 08:30:00 UTC,2445047.854167,29.6650,-93.4789,0037,-26.93,-1.88,27.0000,266.0000
1982-03-19 09:00:00 UTC,2445047.875000,29.6650,-93.4789,0037,-25.96,-1.36,26.0000,267.0000
1982-03-19 09:30:00 UTC,2445047.895833,29.6650,-93.4789,0037,-25.00,-0.00,25.0000,270.0000
1982-03-19 10:00:00 UTC,2445047.916667,29.6650,-93.4789,0037,-25.00,-0.00,25.0000,270.0000
1982-03-19 10:30:00 UTC,2445047.937500,29.6650,-93.4789,0037,-23.94,-1.67,24.0000,266.0000
1982-03-19 11:00:00 UTC,2445047.958333,29.6650,-93.4789,0037,-21.79,-3.06,22.0000,262.0000
1982-03-19 11:30:00 UTC,2445047.979167,29.6650,-93.4789,0037,-21.73,-3.44,22.0000,261.0000
1982-03-19 12:00:00 UTC,2445048.000000,29.6650,-93.4789,0037,-21.97,-1.15,22.0000,267.0000
1982-03-19 12:30:00 UTC,2445048.020833,29.6650,-93.4789,0037,-24.97,1.31,25.0000,273.0000
1982-03-19 13:00:00 UTC,2445048.041667,29.6650,-93.4789,0037,-25.94,1.81,26.0000,274.0000
1982-03-19 13:30:00 UTC,2445048.062500,29.6650,-93.4789,0037,-22.97,1.20,23.0000,273.0000
1982-03-19 14:00:00 UTC,2445048.083333,29.6650,-93.4789,0037,-21.95,1.53,22.0000,274.0000
1982-03-19 14:30:00 UTC,2445048.104167,29.6650,-93.4789,0037,-21.00,-0.00,21.0000,270.0000
1982-03-19 15:00:00 UTC,2445048.125000,29.6650,-93.4789,0037,-18.93,-1.66,19.0000,265.0000
1982-03-19 15:30:00 UTC,2445048.145833,29.6650,-93.4789,0037,-19.97,-1.05,20.0000,267.0000
1982-03-19 16:00:00 UTC,2445048.166667,29.6650,-93.4789,0037,-22.99,0.80,23.0000,272.0000
1982-03-19 16:30:00 UTC,2445048.187500,29.6650,-93.4789,0037,-25.96,1.36,26.0000,273.0000
1982-03-19 17:00:00 UTC,2445048.208333,29.6650,-93.4789,0037,-26.00,-0.00,26.0000,270.0000
1982-03-19 17:30:00 UTC,2445048.229167,29.6650,-93.4789,0037,-24.97,-1.31,25.0000,267.0000
1982-03-19 18:00:00 UTC,2445048.250000,29.6650,-93.4789,0037,-22.94,-1.60,23.0000,266.0000
1982-03-19 18:30:00 UTC,2445048.270833,29.6650,-93.4789,0037,-24.81,-3.05,25.0000,263.0000
1982-03-19 19:00:00 UTC,2445048.291667,29.6650,-93.4789,0037,-27.66,-4.38,28.0000,261.0000
1982-03-19 19:30:00 UTC,2445048.312500,29.6650,-93.4789,0037,-28.64,-4.54,29.0000,261.0000
1982-03-19 20:00:00 UTC,2445048.333333,29.6650,-93.4789,0037,-27.66,-4.38,28.0000,261.0000
1982-03-19 20:30:00 UTC,2445048.354167,29.6650,-93.4789,0037,-25.68,-4.07,26.0000,261.0000
1982-03-19 21:00:00 UTC,2445048.375000,29.6650,-93.4789,0037,-23.70,-3.75,24.0000,261.0000
1982-03-19 21:30:00 UTC,2445048.395833,29.6650,-93.4789,0037,-21.79,-3.06,22.0000,262.0000
1982-03-19 22:00:00 UTC,2445048.416667,29.6650,-93.4789,0037,-19.85,-2.44,20.0000,263.0000
1982-03-19 22:30:00 UTC,2445048.437500,29.6650,-93.4789,0037,-19.81,-2.78,20.0000,262.0000
1982-03-19 23:00:00 UTC,2445048.458333,29.6650,-93.4789,0037,-19.49,-4.50,20.0000,257.0000
1982-03-19 23:30:00 UTC,2445048.479167,29.6650,-93.4789,0037,-19.13,-5.85,20.0000,253.0000
1982-03-20 00:00:00 UTC,2445048.500000,29.6650,-93.4789,0037,-18.79,-6.84,20.0000,250.0000
1982-03-20 00:30:00 UTC,2445048.520833,29.6650,-93.4789,0037,-19.61,-7.53,21.0000,249.0000
1982-03-20 01:00:00 UTC,2445048.541667,29.6650,-93.4789,0037,-19.47,-7.87,21.0000,248.0000
1982-03-20 01:30:00 UTC,2445048.562500,29.6650,-93.4789,0037,-19.47,-7.87,21.0000,248.0000
1982-03-20 02:00:00 UTC,2445048.583333,29.6650,-93.4789,0037,-19.33,-8.21,21.0000,247.0000
1982-03-20 02:30:00 UTC,2445048.604167,29.6650,-93.4789,0037,-19.18,-8.54,21.0000,246.0000
1982-03-20 03:00:00 UTC,2445048.625000,29.6650,-93.4789,0037,-18.87,-9.21,21.0000,244.0000
1982-03-20 03:30:00 UTC,2445048.645833,29.6650,-93.4789,0037,-19.77,-9.64,22.0000,244.0000
1982-03-20 04:00:00 UTC,2445048.666667,29.6650,-93.4789,0037,-23.18,-9.37,25.0000,248.0000
1982-03-20 04:30:00 UTC,2445048.687500,29.6650,-93.4789,0037,-25.53,-8.79,27.0000,251.0000
1982-03-20 05:00:00 UTC,2445048.708333,29.6650,-93.4789,0037,-24.99,-7.17,26.0000,254.0000
1982-03-20 05:30:00 UTC,2445048.729167,29.6650,-93.4789,0037,-24.45,-5.20,25.0000,258.0000